Location: Bittkow
(50.3000°N, 19.0000°E)
Time: 23:27:10
(UTC+00:00)

Cosmos 1812 - Pass Details

Date: 19 September 2020
Orbit: 516 x 521 km, 82.5° (Epoch: 30 October)

Event Time Altitude Azimuth Distance (km) Brightness Sun altitude
Exits shadow 02:52:41 - 187° (S) 1,880 5.3 -15.4°
Reaches altitude 10° 02:53:00 10° 187° (S) 1,750 5.1 -15.3°
Maximum altitude 02:56:50 85° 101° (ESE) 530 2.7 -14.7°
Drops below altitude 10° 03:00:43 10° 11° (N) 1,768 5.8 -14.2°
Sets 03:02:52 0° 11° (N) 2,663 6.8 -13.8°
